Powrót do katalogu

STARLINK-5770

AktywnyŁącznośćVLEO
NORAD 56026·PAYLOAD·🇺🇸 United States

Wystrzelony Mar 24, 2023 z Cape Canaveral Space Force Station

Loading…

Następne Przeloty (najbliższe 24 godziny)

TLE

ŚwieżeSource: CelesTrak SupGP

Epoka: Sep 14, 2026, 21:19 UTC

1 56026C 23042AS  26257.88868056  .00056995  00000+0  20645-2 0  2570
2 56026  43.0022  56.4095 0001398 271.2137 131.3066 15.27548726    13

Śledź STARLINK-5770 w czasie rzeczywistym z AllMySat

Download on the App Store